Showing default

EOS-6, 54361

Orbit data source: Space-Track

EOS-6, 54361 is a payload satellite owned by ISRO (IN) in SSO that was launched on Sat, 26 Nov 2022 UTC via a PSLV-XL launch vehicle from the Sirharikota (SRI). Payload-class satellites include a variety of spacecraft equipped with specific instruments for various scientific and technological missions. These include communications satellites like Starlink; space stations such as the ISS; scientific satellites like the Hubble; Earth observation satellites from companies like Planet Labs, Umbra, and HawkEye 360; GPS; miniature CubeSats for education and research; and military/defense satellites.

Loading next visibility...
Identifier
54361, 2022-158A
Orbit
SSO
Country
Flag of ININ / IND
Related business
Manufacturer
ISAC/HAL
Mission
Operational Civil Imaging
Bus & Motor
IRS, Unknown motor
Mass
1,117 kg wet, ~950 kg dry
Launch date (UTC)
2022-11-26 (4 years ago)
Launch vehicle
PSLV-XL
Launch site
Sirharikota (SRI)
Object type
Payload
Rocket body
Debris
Shape & HBR
Box + Hex Box + 3 Pan, 5.8 m
Radar Cross Section
17.625 m², Large (>1 m²)

Expand to show TLE details & history
Last TLE update: 1 day ago

TLE from 1 day ago
0 EOS-6
1 54361U 22158A   26172.51908664  .00000188  00000-0  63725-4 0  9998
2 54361  98.3543 270.6558 0000999  46.6434 313.4842 14.47002510188466
Epoch: 2026-06-21T12:27Z
TLE epoch observation values (Epoch: 2026-06-21T12:27:29.085Z)
Latitude
0.00001°
Longitude
174.06642°
Altitude
737.929 km
Speed
7.486 km/s
True Right ascension
18h 02m 37s
True Declination
0° 00' 00"
Sunlit
Object was in full shadow at epoch
Visualization orbit readout
Latitude
Unknown
Longitude
Unknown
Altitude
Unknown
Speed
Unknown
Apparent Right ascension
Unknown
Apparent Declination
Unknown
Sunlit
N/A
Visualization observer readout
Local Sidereal Time
23:20:16
Azimuth
Unknown
Elevation
Unknown
Doppler factor
Unknown
Orbital elements
Apogee altitude
733.272 km
Perigee altitude
731.851 km
Semi-major axis
7,110.698 km
Eccentricity
0.0001
Inclination
98.3543°
RAAN
270.6558°
Arg. of periapsis
46.6434°
True anomaly
313.47589°
Mean anomaly
313.4842°
Eccentric anomaly
313.48005°
Mean motion
3.61972 °/min
Orbital period
99.46 mins
BSTAR
0.000063725
Loading maneuver chart data...
Computing Atmospheric mass density...
Loading historical data...
Loading historical data...
Loading historical data...
Loading historical data...
Loading historical data...
Loading historical data...
Loading historical data...

Documentation

Showing up to 5 results
|